Lyndonville, VT

1:39 PM EDT on May 23, 2018 (GMT -0400)
Lyndonville

Weather History for KCDA - May, 2014

Change the Weather History Date:

Tuesday, May 20, 2014

  Actual Average (K1V4) Record (K1V4)
Temperature  
Mean Temperature 55 °F -  
Max Temperature 67 °F 64 °F 91 °F (1975)
Min Temperature 44 °F 41 °F 27 °F (2002)
Degree Days  
Heating Degree Days 10    
Growing Degree Days 5 (Base 50)    
Moisture  
Dew Point 36 °F    
Average Humidity 48    
Maximum Humidity 76    
Minimum Humidity 27    
Precipitation  
Precipitation 0.00 in - - ()
Sea Level Pressure  
Sea Level Pressure 30.05 in    
Wind  
Wind Speed - (North)    
Max Wind Speed -    
Max Gust Speed -    
Visibility 10 miles    
Events      
Averages and records for this station are not official NWS values.
T = Trace of Precipitation, MM = Missing Value Source: NWS Daily Summary

Daily Weather History Graph

Daily Weather History Graph

Search for Another Location

Airport or City:

Astronomy

May. 20, 2014 Rise Set
Actual Time 5:15 AM EDT 8:14 PM EDT
Civil Twilight 4:40 AM EDT 8:49 PM EDT
Nautical Twilight 3:56 AM EDT 9:33 PM EDT
Astronomical Twilight 3:04 AM EDT 10:26 PM EDT
Moon 12:37 AM EDT (5/20) 11:25 AM EDT (5/20)
Length of Visible Light 16h 08m
Length of Day
14h 59m
Waning Gibbous, 60% of the Moon is Illuminated
May 20
Waning Gibbous
May 21
Last Quarter
May 28
New
Jun 5
First Quarter
Jun 13
Full

Hourly Weather History & Observations

Time (EDT) Temp. Dew Point Humidity Pressure Visibility Wind Dir Wind Speed Gust Speed Precip Events Conditions
12:15 AM 51.3 °F 38.1 °F 61% 30.07 in 10.0 mi North - - N/A   Overcast
12:35 AM 53.2 °F 36.7 °F 53% 30.07 in 10.0 mi North - - N/A   Overcast
12:55 AM 51.3 °F 37.6 °F 60% 30.06 in 10.0 mi North - - N/A   Overcast
1:15 AM 50.9 °F 36.7 °F 58% 30.05 in 10.0 mi North - - N/A   Overcast
1:35 AM 47.8 °F 40.5 °F 76% 30.06 in 10.0 mi North - - N/A   Scattered Clouds
1:55 AM 48.2 °F 37.6 °F 67% 30.06 in 10.0 mi North - - N/A   Clear
2:15 AM 48.0 °F 40.1 °F 74% 30.06 in 10.0 mi North - - N/A   Clear
2:35 AM 45.7 °F 38.3 °F 75% 30.07 in 10.0 mi North - - N/A   Clear
2:55 AM 46.2 °F 37.0 °F 70% 30.07 in 10.0 mi North - - N/A   Clear
3:15 AM 48.9 °F 36.9 °F 63% 30.07 in 10.0 mi North - - N/A   Clear
3:35 AM 46.8 °F 37.4 °F 70% 30.07 in 10.0 mi North - - N/A   Clear
3:55 AM 46.4 °F 36.9 °F 69% 30.07 in 10.0 mi North - - N/A   Clear
4:35 AM 44.6 °F 37.4 °F 76% 30.08 in 10.0 mi North - - N/A   Clear
4:55 AM 46.4 °F 38.3 °F 73% 30.08 in 10.0 mi North - - N/A   Clear
5:15 AM 46.2 °F 38.3 °F 74% 30.08 in 10.0 mi North - - N/A   Clear
5:35 AM 46.6 °F 38.3 °F 73% 30.09 in 10.0 mi North - - N/A   Clear
5:55 AM 46.6 °F 38.3 °F 73% 30.10 in 10.0 mi North - - N/A   Clear
6:15 AM 47.5 °F 39.2 °F 73% 30.11 in 10.0 mi North - - N/A   Clear
6:35 AM 49.3 °F 39.4 °F 69% 30.11 in 10.0 mi North - - N/A   Clear
6:55 AM 49.1 °F 39.9 °F 71% 30.11 in 10.0 mi North - - N/A   Clear
7:15 AM 51.6 °F 40.3 °F 65% 30.11 in 10.0 mi North - - N/A   Clear
7:35 AM 52.9 °F 39.9 °F 61% 30.10 in 10.0 mi North - - N/A   Clear
7:55 AM 54.1 °F 40.3 °F 59% 30.10 in 10.0 mi North - - N/A   Clear
8:15 AM 55.0 °F 40.8 °F 59% 30.10 in 10.0 mi North - - N/A   Clear
8:35 AM 55.9 °F 40.5 °F 56% 30.10 in 10.0 mi North - - N/A   Clear
8:55 AM 56.3 °F 40.1 °F 55% 30.09 in 10.0 mi North - - N/A   Clear
9:15 AM 56.8 °F 39.0 °F 51% 30.08 in 10.0 mi North - - N/A   Clear
9:35 AM 58.5 °F 39.0 °F 48% 30.08 in 10.0 mi North - - N/A   Clear
9:55 AM 58.6 °F 37.4 °F 45% 30.08 in 10.0 mi North - - N/A   Clear
10:15 AM 59.9 °F 37.6 °F 44% 30.07 in 10.0 mi North - - N/A   Clear
10:35 AM 60.4 °F 35.1 °F 39% 30.07 in 10.0 mi North - - N/A   Clear
10:55 AM 61.5 °F 35.2 °F 37% 30.06 in 10.0 mi North - - N/A   Clear
11:15 AM 63.3 °F 33.4 °F 33% 30.07 in 10.0 mi North - - N/A   Clear
11:35 AM 63.5 °F 31.6 °F 30% 30.06 in 10.0 mi North - - N/A   Scattered Clouds
11:55 AM 63.7 °F 33.8 °F 33% 30.06 in 10.0 mi North - - N/A   Scattered Clouds
12:15 PM 63.5 °F 31.6 °F 30% 30.05 in 10.0 mi North - - N/A   Scattered Clouds
12:35 PM 64.8 °F 31.3 °F 29% 30.05 in 10.0 mi North - - N/A   Clear
12:55 PM 65.1 °F 32.2 °F 29% 30.05 in 10.0 mi North - - N/A   Clear
1:15 PM 65.5 °F 32.9 °F 30% 30.05 in 10.0 mi North - - N/A   Clear
1:35 PM 65.1 °F 30.7 °F 28% 30.04 in 10.0 mi North - - N/A   Clear
1:55 PM 66.6 °F 33.4 °F 29% 30.04 in 10.0 mi North - - N/A   Scattered Clouds
2:15 PM 65.7 °F 31.1 °F 27% 30.03 in 10.0 mi North - - N/A   Scattered Clouds
2:35 PM 66.2 °F 32.4 °F 28% 30.03 in 10.0 mi North - - N/A   Scattered Clouds
2:55 PM 64.4 °F 32.4 °F 30% 30.02 in 10.0 mi North - - N/A   Scattered Clouds
3:15 PM 66.0 °F 31.8 °F 28% 30.02 in 10.0 mi North - - N/A   Mostly Cloudy
3:35 PM 64.0 °F 33.3 °F 32% 30.02 in 10.0 mi North - - N/A   Overcast
3:55 PM 64.4 °F 33.3 °F 31% 30.01 in 10.0 mi North - - N/A   Overcast
4:15 PM 65.3 °F 33.4 °F 31% 30.01 in 10.0 mi North - - N/A   Overcast
4:35 PM 65.1 °F 33.3 °F 31% 30.01 in 10.0 mi North - - N/A   Mostly Cloudy
4:55 PM 66.7 °F 32.2 °F 28% 30.01 in 10.0 mi North - - N/A   Overcast
5:15 PM 65.7 °F 32.4 °F 29% 30.01 in 10.0 mi North - - N/A   Overcast
5:35 PM 65.7 °F 32.0 °F 29% 30.01 in 10.0 mi North - - N/A   Overcast
5:55 PM 66.6 °F 33.1 °F 29% 30.01 in 10.0 mi North - - N/A   Overcast
6:15 PM 66.2 °F 33.1 °F 29% 30.01 in 10.0 mi North - - N/A   Overcast
6:35 PM 66.2 °F 32.2 °F 28% 30.01 in 10.0 mi North - - N/A   Overcast
6:55 PM 64.0 °F 34.7 °F 34% 30.01 in 10.0 mi North - - N/A   Scattered Clouds
7:15 PM 64.0 °F 33.1 °F 31% 30.01 in 10.0 mi North - - N/A   Scattered Clouds
7:35 PM 63.9 °F 33.1 °F 32% 30.01 in 10.0 mi North - - N/A   Mostly Cloudy
7:55 PM 63.5 °F 36.7 °F 37% 30.01 in 10.0 mi North - - N/A   Overcast
8:15 PM 61.7 °F 37.0 °F 40% 30.01 in 10.0 mi North - - N/A   Mostly Cloudy
8:35 PM 59.2 °F 37.4 °F 44% 30.02 in 10.0 mi North - - N/A   Scattered Clouds
8:55 PM 57.9 °F 37.6 °F 47% 30.02 in 10.0 mi North - - N/A   Scattered Clouds
9:15 PM 58.3 °F 37.0 °F 45% 30.03 in 10.0 mi North - - N/A   Scattered Clouds
9:35 PM 58.3 °F 37.8 °F 46% 30.03 in 10.0 mi North - - N/A   Mostly Cloudy
9:55 PM 56.8 °F 39.2 °F 52% 30.04 in 10.0 mi North - - N/A   Overcast
10:15 PM 56.7 °F 38.3 °F 50% 30.03 in 10.0 mi North - - N/A   Overcast
10:35 PM 56.8 °F 40.3 °F 54% 30.03 in 10.0 mi North - - N/A   Overcast
10:55 PM 54.5 °F 39.2 °F 56% 30.03 in 10.0 mi North - - N/A   Overcast
11:15 PM 52.7 °F 39.9 °F 62% 30.02 in 10.0 mi North - - N/A   Scattered Clouds
11:35 PM 52.3 °F 39.7 °F 62% 30.02 in 10.0 mi North - - N/A   Clear
11:55 PM 50.7 °F 39.6 °F 66% 30.02 in 10.0 mi North - - N/A   Clear